Regional Weather Roundup
Issued by NWS

Home | Current Version | Previous Version | Text Only | Print | Product List | Glossary Off
Versions: 1 2 3 4 5 6 7 8 9 10 11 12 13 14 15 16 17 18 19 20 21 22 23 24 25 26 27 28 29 30 31 32 33 34 35 36 37 38 39 40 41 42 43 44 45 46 47 48 49 50

000
ASUS45 KCYS 280310
RWRWY

WYOMING REGIONAL WEATHER ROUNDUP
NATIONAL WEATHER SERVICE CHEYENNE WY
900 PM MDT TUE SEP 27 2016

NOTE:  "FAIR" INDICATES FEW OR NO CLOUDS BELOW 12,000 FEET
WITH NO SIGNIFICANT WEATHER AND/OR OBSTRUCTIONS TO VISIBILITY.

WYZ001-280400-
YELLOWSTONE NATIONAL PARK

CITY           SKY/WX    TMP DP  RH WIND       PRES   REMARKS
LK YELLOWSTONE   N/A     42  37  82 CALM      30.37R
W YELLOWSTONE  NOT AVBL

$$
WYZ002>013-054>058-071-098>099-280400-
NORTHERN WYOMING

CITY           SKY/WX    TMP DP  RH WIND       PRES   REMARKS
JACKSON        FAIR      52  39  62 NE3       30.26R
CODY           FAIR      59  46  62 S3        30.21R
GREYBULL       FAIR      63  51  65 E7        30.11R
WORLAND        FAIR      58  48  69 E6        30.12R
SHERIDAN       FAIR      56  45  66 S5        30.12R
BUFFALO        FAIR      59  41  51 W8        30.19R
GILLETTE       FAIR      50  46  86 S5        30.13R
HULETT         FAIR      63  41  45 CALM      30.14R
NEWCASTLE      FAIR      59  37  44 N9        30.12R

$$
WYZ014>020-022>026-101>103-280400-
CENTRAL WYOMING

CITY           SKY/WX    TMP DP  RH WIND       PRES   REMARKS
BIG PINEY      FAIR      52  38  58 NW9       30.29R
PINEDALE       FAIR      46  34  61 N7        30.30R
DUBOIS         FAIR      54  32  43 W7        30.32R
LANDER         FAIR      61  38  42 SW13      30.20R
RIVERTON       FAIR      57  45  64 E3        30.21R
CASPER         FAIR      53  41  63 NW9       30.19R
DOUGLAS        FAIR      58  35  42 NW3       30.17R

$$
WYZ021-027>030-104>119-280400-
SOUTHERN WYOMING

CITY           SKY/WX    TMP DP  RH WIND       PRES   REMARKS
EVANSTON       FAIR      61  39  44 N7        30.30R
FORT BRIDGER   FAIR      60  32  34 S5        30.32R
ROCK SPRINGS   FAIR      60  36  40 CALM      30.28R
DIXON          FAIR      49  36  59 NE5       30.31R
RAWLINS        FAIR      49  30  48 NW5       30.29R
SARATOGA       FAIR      50  32  50 S10G16    30.31R
LARAMIE        FAIR      53  31  42 SE3       30.31R
CHEYENNE       FAIR      56  28  34 W8        30.24R
TORRINGTON     FAIR      60  35  39 CALM      30.10R
PINE BLUFFS    FAIR      52  32  46 W6        30.18R

$$



USA.gov is the U.S. government's official web portal to all federal, state and local government web resources and services.